This demonstration page uses our WeatherBlox Daily Observations layout. Learn more.

Left ArrowRight Arrow

41.12389, -100.76542

Hourly Observations for March 1, 2015

Temp ( °F °C ) Dew Point ( °F °C ) Humidity (%) Winds ( mph kmh ) Pressure ( in mb ) Visibility ( mi km ) Precip ( " mm )
12:53 am 00:53 Mostly Cloudy 16 -8.9 10 -12.2 77 77 SSE 5 7 30.29 1026 10 16 0.00 0.00
1:53 am 01:53 Cloudy 17 -8.3 12 -11.1 80 80 Calm 30.31 1026 10 16 0.00 0.00
2:53 am 02:53 Cloudy 19 -7.2 13 -10.6 77 77 Calm 30.31 1026 10 16 0.00 0.00
3:53 am 03:53 Cloudy 19 -7.2 13 -10.6 77 77 Calm 30.31 1026 10 16 0.00 0.00
4:53 am 04:53 Cloudy 20 -6.7 14 -10 78 78 NW 3 6 30.32 1027 10 16 0.00 0.00
5:53 am 05:53 Cloudy 20 -6.7 14 -10 78 78 WNW 5 7 30.33 1027 10 16 0.00 0.00
6:53 am 06:53 Cloudy 19 -7.2 13 -10.6 77 77 NW 3 6 30.36 1028 10 16 0.00 0.00
7:53 am 07:53 Mostly Sunny 18 -7.8 12 -11.1 77 77 Calm 30.38 1029 10 16 0.00 0.00
8:53 am 08:53 Sunny 22 -5.6 10 -12.2 60 60 NNE 8 13 30.41 1030 10 16 0.00 0.00
9:53 am 09:53 Sunny 27 -2.8 8 -13.3 45 45 NE 6 9 30.43 1031 10 16 0.00 0.00
10:53 am 10:53 Sunny 30 -1.1 7 -13.9 38 38 NNE 5 7 30.44 1031 10 16 0.00 0.00
11:53 am 11:53 Sunny 32 0 9 -12.8 38 38 Calm 30.43 1031 10 16 0.00 0.00
12:53 pm 12:53 Mostly Sunny 35 1.7 10 -12.2 35 35 WSW 6 9 30.41 1030 10 16 0.00 0.00
1:53 pm 13:53 Sunny 36 2.2 11 -11.7 35 35 VRB 5 7 30.39 1029 10 16 0.00 0.00
2:53 pm 14:53 Sunny 39 3.9 12 -11.1 33 33 WNW 10 17 30.36 1028 10 16 0.00 0.00
3:53 pm 15:53 Sunny 39 3.9 12 -11.1 33 33 WNW 7 11 30.37 1028 10 16 0.00 0.00
4:53 pm 16:53 Sunny 39 3.9 11 -11.7 31 31 WNW 9 15 30.37 1028 10 16 0.00 0.00
5:53 pm 17:53 Mostly Sunny 27 -3 10 -12 50 50 SSW 8 13 30.27 1025 10 16 0.00 0.00
6:53 pm 18:53 Clear 27 -2.8 8 -13.3 45 45 N 6 9 30.41 1030 10 16 0.00 0.00
7:53 pm 19:53 Clear 22 -5.6 9 -12.8 57 57 Calm 30.44 1031 10 16 0.00 0.00
8:53 pm 20:53 Clear 22 -5.6 11 -11.7 63 63 Calm 30.45 1031 10 16 0.00 0.00
9:53 pm 21:53 Clear 18 -7.8 8 -13.3 65 65 ENE 3 6 30.48 1032 10 16 0.00 0.00
10:53 pm 22:53 Clear 19 -7.2 11 -11.7 71 71 ESE 6 9 30.47 1032 10 16 0.00 0.00
11:53 pm 23:53 Clear 21 -6.1 12 -11.1 68 68 ESE 6 9 30.46 1032 10 16 0.00 0.00

Powered by AerisWeather